User: anonymous   Login
Location: Caltech
(34.1382°N, 118.1253°W)
Time: 12:59:09
(UTC-07:00)
Language:

CZ-4B DEB - Orbit

View from above orbital plane
View from above orbital plane
View from above satellite
View from above satellite

Ground track
Ground track

The orbit data is extracted from the following two-line orbital elements,

1 27433U 02024D   16151.93712581 +.00000104 +00000-0 +80639-4 0  9992
2 27433 098.9198 120.0033 0015715 052.6068 307.6532 14.12073135723230
Epoch (UTC): 30 May 2016 22:29:27
Eccentricity: 0.0015715
inclination: 98.9198°
perigee height: 841 km
apogee height: 863 km
right ascension of ascending node: 120.0033°
argument of perigee: 52.6068°
revolutions per day: 14.12073135
mean anomaly at epoch: 307.6532°
orbit number at epoch: 72323

The dashed part of the orbit path shows where the satellite is in the earth's shadow,  

DLR